Weather History for KSFM - September, 2014

Change the Weather History Date:

Tuesday, September 9, 2014

  Actual Average Record
Temperature  
Mean Temperature 54 °F -  
Max Temperature 66 °F 71 °F 96 °F (2002)
Min Temperature 42 °F 48 °F 33 °F (2013)
Degree Days  
Heating Degree Days 11    
Growing Degree Days 4 (Base 50)    
Moisture  
Dew Point 47 °F    
Average Humidity 73    
Maximum Humidity 88    
Minimum Humidity 46    
Precipitation  
Precipitation 0.00 in - - ()
Sea Level Pressure  
Sea Level Pressure 30.35 in    
Wind  
Wind Speed 3 mph (NE)    
Max Wind Speed 10 mph    
Max Gust Speed 18 mph    
Visibility 10 miles    
Events      
Averages and records for this station are not official NWS values.
T = Trace of Precipitation, MM = Missing Value Source: NWS Daily Summary

Daily Weather History Graph

Daily Weather History Graph

Search for Another Location

Airport or City:

Trip Planner

Search our weather history database for the weather conditions in past years. The results will help you decide how hot, cold, wet, or windy it might be!

Date:

Astronomy

Sep. 09, 2014 Rise Set
Actual Time 6:15 AM EDT 7:03 PM EDT
Civil Twilight 5:46 AM EDT 7:32 PM EDT
Nautical Twilight 5:12 AM EDT 8:07 PM EDT
Astronomical Twilight 4:36 AM EDT 8:42 PM EDT
Moon 7:18 PM EDT (9/9) 6:50 AM EDT (9/9)
Length of Visible Light 13h 46m
Length of Day
12h 48m
Waxing Gibbous, 99% of the Moon is Illuminated
Sep 9
Waxing Gibbous
Sep 15
Last Quarter
Sep 24
New
Oct 1
First Quarter
Oct 8
Full

Hourly Weather History & Observations

Time (EDT) Temp. Windchill Dew Point Humidity Pressure Visibility Wind Dir Wind Speed Gust Speed Precip Events Conditions
12:15 AM 44.6 °F - 39.2 °F 81% 30.40 in 10.0 mi Calm Calm - N/A   Clear
12:35 AM 44.6 °F - 39.2 °F 81% 30.39 in 10.0 mi Calm Calm - N/A   Clear
12:55 AM 42.8 °F - 39.2 °F 87% 30.39 in 10.0 mi Calm Calm - N/A   Clear
1:15 AM 44.6 °F 43.1 °F 39.2 °F 81% 30.39 in 10.0 mi West 3.5 mph - N/A   Clear
1:35 AM 44.6 °F - 39.2 °F 81% 30.40 in 10.0 mi Calm Calm - N/A   Clear
1:55 AM 46.4 °F - 42.8 °F 87% 30.39 in 10.0 mi Calm Calm - N/A   Clear
2:15 AM 46.4 °F - 41.0 °F 81% 30.39 in 10.0 mi Calm Calm - N/A   Clear
2:35 AM 44.6 °F 43.1 °F 39.2 °F 81% 30.40 in 10.0 mi West 3.5 mph - N/A   Clear
2:55 AM 44.6 °F - 39.2 °F 81% 30.40 in 10.0 mi Calm Calm - N/A   Clear
3:15 AM 44.6 °F - 39.2 °F 81% 30.40 in 10.0 mi Calm Calm - N/A   Clear
3:35 AM 44.6 °F - 39.2 °F 81% 30.39 in 8.0 mi Calm Calm - N/A   Clear
3:55 AM 44.6 °F - 39.2 °F 81% 30.39 in 5.0 mi Calm Calm - N/A   Clear
4:15 AM 42.8 °F - 39.2 °F 87% 30.39 in 9.0 mi Calm Calm - N/A   Clear
4:35 AM 42.8 °F - 37.4 °F 81% 30.39 in 10.0 mi Calm Calm - N/A   Clear
4:55 AM 42.8 °F - 37.4 °F 81% 30.39 in 10.0 mi Calm Calm - N/A   Clear
5:15 AM 42.8 °F - 37.4 °F 81% 30.40 in 10.0 mi Calm Calm - N/A   Clear
5:35 AM 44.6 °F - 41.0 °F 87% 30.40 in 9.0 mi Calm Calm - N/A   Clear
5:55 AM 44.6 °F - 39.2 °F 81% 30.40 in 7.0 mi Calm Calm - N/A   Clear
6:15 AM 46.4 °F 45.2 °F 42.8 °F 87% 30.40 in 10.0 mi North 3.5 mph - N/A   Clear
6:35 AM 44.6 °F - 41.0 °F 87% 30.41 in 10.0 mi Calm Calm - N/A   Clear
6:55 AM 48.2 °F - 42.8 °F 82% 30.41 in 10.0 mi North 4.6 mph - N/A   Clear
7:15 AM 51.8 °F - 46.4 °F 82% 30.41 in 10.0 mi North 4.6 mph - N/A   Clear
7:35 AM 51.8 °F - 46.4 °F 82% 30.41 in 10.0 mi North 5.8 mph - N/A   Clear
7:55 AM 53.6 °F - 48.2 °F 82% 30.41 in 10.0 mi North 6.9 mph - N/A   Clear
8:15 AM 53.6 °F - 48.2 °F 82% 30.41 in 10.0 mi North 5.8 mph - N/A   Clear
8:35 AM 55.4 °F - 48.2 °F 77% 30.41 in 10.0 mi North 6.9 mph - N/A   Clear
8:55 AM 57.2 °F - 50.0 °F 77% 30.40 in 10.0 mi NE 8.1 mph - N/A   Clear
9:15 AM 60.8 °F - 48.2 °F 63% 30.40 in 10.0 mi NE 8.1 mph - N/A   Clear
9:35 AM 60.8 °F - 48.2 °F 63% 30.40 in 10.0 mi NE 10.4 mph - N/A   Clear
9:55 AM 62.6 °F - 48.2 °F 59% 30.40 in 10.0 mi NE 10.4 mph - N/A   Clear
10:15 AM 62.6 °F - 50.0 °F 63% 30.39 in 10.0 mi ENE 8.1 mph - N/A   Clear
10:55 AM 64.4 °F - 50.0 °F 59% 30.38 in 10.0 mi East 8.1 mph - N/A   Clear
11:15 AM 66.2 °F - 50.0 °F 56% 30.37 in 10.0 mi East 10.4 mph 18.4 mph N/A   Partly Cloudy
11:35 AM 64.4 °F - 48.2 °F 56% 30.37 in 10.0 mi ENE 10.4 mph - N/A   Clear
11:55 AM 66.2 °F - 48.2 °F 52% 30.38 in 10.0 mi East 5.8 mph - N/A   Partly Cloudy
12:15 PM 66.2 °F - 48.2 °F 52% 30.38 in 10.0 mi East 9.2 mph - N/A   Partly Cloudy
12:35 PM 64.4 °F - 48.2 °F 56% 30.37 in 10.0 mi East 9.2 mph - N/A   Partly Cloudy
12:55 PM 64.4 °F - 48.2 °F 56% 30.36 in 10.0 mi East 8.1 mph - N/A   Partly Cloudy
1:15 PM 66.2 °F - 46.4 °F 49% 30.36 in 10.0 mi East 6.9 mph - N/A   Clear
1:35 PM 66.2 °F - 46.4 °F 49% 30.35 in 10.0 mi ENE 8.1 mph - N/A   Clear
1:55 PM 66.2 °F - 44.6 °F 46% 30.35 in 10.0 mi East 8.1 mph - N/A   Clear
2:15 PM 66.2 °F - 46.4 °F 49% 30.33 in 10.0 mi East 6.9 mph - N/A   Clear
2:35 PM 66.2 °F - 46.4 °F 49% 30.33 in 10.0 mi East 6.9 mph - N/A   Partly Cloudy
3:35 PM 64.4 °F - 50.0 °F 59% 30.31 in 10.0 mi ESE 5.8 mph - N/A   Mostly Cloudy
3:55 PM 64.4 °F - 50.0 °F 59% 30.31 in 10.0 mi ESE 8.1 mph - N/A   Partly Cloudy
4:15 PM 64.4 °F - 50.0 °F 59% 30.31 in 10.0 mi East 5.8 mph - N/A   Scattered Clouds
4:35 PM 64.4 °F - 51.8 °F 64% 30.30 in 10.0 mi East 5.8 mph - N/A   Mostly Cloudy
5:15 PM 64.4 °F - 51.8 °F 64% 30.29 in 10.0 mi East 6.9 mph - N/A   Partly Cloudy
5:35 PM 64.4 °F - 50.0 °F 59% 30.29 in 10.0 mi ENE 6.9 mph - N/A   Partly Cloudy
5:55 PM 62.6 °F - 51.8 °F 68% 30.28 in 10.0 mi ENE 5.8 mph - N/A   Scattered Clouds
6:15 PM 62.6 °F - 51.8 °F 68% 30.28 in 10.0 mi ENE 5.8 mph - N/A   Mostly Cloudy
6:35 PM 62.6 °F - 51.8 °F 68% 30.28 in 10.0 mi ENE 6.9 mph - N/A   Mostly Cloudy
6:55 PM 60.8 °F - 51.8 °F 72% 30.28 in 10.0 mi ENE 5.8 mph - N/A   Mostly Cloudy
7:15 PM 59.0 °F - 51.8 °F 77% 30.27 in 10.0 mi ENE 4.6 mph - N/A   Mostly Cloudy
7:35 PM 59.0 °F - 51.8 °F 77% 30.28 in 10.0 mi ENE 5.8 mph - N/A   Mostly Cloudy
7:55 PM 57.2 °F - 51.8 °F 82% 30.28 in 10.0 mi East 4.6 mph - N/A   Partly Cloudy
8:15 PM 57.2 °F - 51.8 °F 82% 30.27 in 10.0 mi East 5.8 mph - N/A   Mostly Cloudy
8:35 PM 57.2 °F - 51.8 °F 82% 30.27 in 10.0 mi ENE 4.6 mph - N/A   Partly Cloudy
8:55 PM 55.4 °F - 51.8 °F 88% 30.27 in 10.0 mi NE 3.5 mph - N/A   Scattered Clouds
9:15 PM 55.4 °F - 50.0 °F 82% 30.27 in 10.0 mi Calm Calm - N/A   Scattered Clouds
9:35 PM 53.6 °F - 48.2 °F 82% 30.27 in 10.0 mi Calm Calm - N/A   Mostly Cloudy
9:55 PM 55.4 °F - 50.0 °F 82% 30.27 in 10.0 mi Calm Calm - N/A   Overcast
10:15 PM 57.2 °F - 51.8 °F 82% 30.27 in 10.0 mi North 5.8 mph - N/A   Overcast
10:35 PM 57.2 °F - 51.8 °F 82% 30.26 in 10.0 mi North 6.9 mph - N/A   Overcast
10:55 PM 55.4 °F - 51.8 °F 88% 30.25 in 10.0 mi North 4.6 mph - N/A   Overcast
11:15 PM 55.4 °F - 50.0 °F 82% 30.24 in 10.0 mi NNE 4.6 mph - N/A   Mostly Cloudy
11:35 PM 55.4 °F - 51.8 °F 88% 30.24 in 10.0 mi North 4.6 mph - N/A   Overcast
11:55 PM 57.2 °F - 51.8 °F 82% 30.24 in 10.0 mi North 3.5 mph - N/A   Overcast